This demonstration page uses our WeatherBlox Daily Observations layout. Learn more.

Left ArrowRight Arrow

Hourly Observations for May 4, 2020

Temp ( °F °C ) Dew Point ( °F °C ) Humidity (%) Winds ( mph kmh ) Pressure ( in mb ) Visibility ( mi km ) Precip ( " mm )
12:52 am 00:52 Mostly Cloudy 61 16.1 56 13.3 84 84 E 6 9 29.98 1015 10 16 0.00 0.00
1:52 am 01:52 Cloudy 62 16.7 52 11.1 70 70 E 7 11 29.95 1014 10 16 0.00 0.00
2:52 am 02:52 Cloudy 61 16.1 48 8.9 63 63 E 6 9 29.94 1014 10 16 0.00 0.00
3:52 am 03:52 Cloudy 60 15.6 49 9.4 67 67 E 7 11 29.93 1014 10 16 0.00 0.00
4:52 am 04:52 Clear 58 14.4 51 10.6 78 78 ESE 9 15 29.93 1013 10 16 0.00 0.00
5:52 am 05:52 Clear 58 14.4 52 11.1 81 81 E 12 19 29.90 1013 10 16 0.00 0.00
6:52 am 06:52 Partly Cloudy 58 14.4 50 10 75 75 ESE 9 15 29.92 1013 10 16 0.00 0.00
7:52 am 07:52 Cloudy 60 15.6 47 8.3 62 62 SE 14 22 29.92 1013 10 16 0.00 0.00
8:52 am 08:52 Cloudy 62 16.7 47 8.3 58 58 SE 16 26 29.90 1013 10 16 0.00 0.00
9:15 am 09:15 Cloudy 63 17.2 47 8.3 56 56 SE 16 26 29.88 1012 10 16 0.00 0.00
9:52 am 09:52 Mostly Cloudy 63 17.2 48 8.9 58 58 ESE 22 35 29.84 1011 10 16 0.00 0.00
10:18 am 10:18 Mostly Cloudy 62 16.7 48 8.9 60 60 SE 16 26 29.82 1010 10 16 0.00 0.00
10:52 am 10:52 Cloudy 62 16.7 50 10 65 65 SE 20 31 29.85 1011 10 16 0.00 0.00
11:52 am 11:52 Mostly Cloudy 59 15 51 10.6 75 75 SE 23 37 29.77 1008 10 16 0.00 0.00
12:03 pm 12:03 Mostly Cloudy with Nearby Thunderstorms 59 15 52 11.1 78 78 SE 25 41 29.78 1008 10 16 0.00 0.00
12:10 pm 12:10 Mostly Cloudy with Nearby Thunderstorms 58 14.4 52 11.1 81 81 SSE 22 35 29.79 1009 10 16 0.00 0.00
12:52 pm 12:52 Cloudy with Nearby Thunderstorms 59 15 55 12.8 87 87 VRB 3 6 29.83 1010 10 16 0.00 0.00
1:07 pm 13:07 Cloudy 59 15 53 11.7 81 81 ENE 12 19 29.83 1010 10 16 0.00 0.00
1:17 pm 13:17 Cloudy 59 15 53 11.7 81 81 SE 15 24 29.80 1009 10 16 0.00 0.00
1:26 pm 13:26 Cloudy 59 15 54 12.2 83 83 SE 12 19 29.79 1009 10 16 0.00 0.00
1:52 pm 13:52 Cloudy 61 16.1 55 12.8 81 81 SE 17 28 29.76 1008 10 16 0.00 0.00
2:52 pm 14:52 Cloudy 60 15.6 55 12.8 84 84 NE 9 15 29.86 1011 10 16 0.00 0.00
3:32 pm 15:32 Cloudy with Light Rain 60 15.6 56 13.3 86 86 E 14 22 29.81 1010 10 16 0.00 0.00
3:52 pm 15:52 Cloudy 61 16.1 56 13.3 84 84 ESE 16 26 29.78 1009 10 16 0.00 0.00
4:52 pm 16:52 Cloudy 62 16.7 57 13.9 84 84 E 14 22 29.78 1008 10 16 0.00 0.00
5:21 pm 17:21 Cloudy 63 17.2 58 14.4 84 84 E 15 24 29.76 1008 10 16 0.00 0.00
5:52 pm 17:52 Cloudy 62 16.7 57 13.9 84 84 SE 20 31 29.74 1007 10 16 0.00 0.00
6:52 pm 18:52 Cloudy 62 16.7 58 14.4 86 86 SE 14 22 29.73 1007 10 16 0.00 0.00
7:35 pm 19:35 Cloudy 62 16.7 59 15 90 90 SSE 17 28 29.75 1007 10 16 0.00 0.00
7:52 pm 19:52 Cloudy 62 16.7 59 15 90 90 SSE 15 24 29.75 1008 10 16 0.00 0.00
8:52 pm 20:52 Cloudy 61 16.1 60 15.6 97 97 S 9 15 29.78 1009 10 16 0.00 0.00
9:52 pm 21:52 Cloudy 61 16.1 60 15.6 97 97 SSE 9 15 29.79 1009 10 16 0.00 0.00
10:02 pm 22:02 Cloudy 61 16.1 60 15.6 97 97 SSE 7 11 29.80 1009 9 14 0.00 0.00
10:52 pm 22:52 Cloudy with Mist and Fog 61 16.1 60 15.6 97 97 S 6 9 29.80 1009 6 10 0.00 0.00
11:41 pm 23:41 Cloudy with Mist and Fog 61 16.1 61 16.1 100 100 W 7 11 29.80 1009 2 3 0.00 0.00
11:48 pm 23:48 Cloudy with Mist and Fog 61 16 61 16 100 100 W 6 9 29.80 1009 2 3 0.00 0.00
11:52 pm 23:52 Cloudy with Mist and Fog 61 16.1 61 16.1 100 100 W 6 9 29.80 1009 2 3 0.00 0.00
11:59 pm 23:59 Cloudy with Mist and Fog 61 16.1 61 16.1 100 100 WNW 6 9 29.80 1009 3 4 0.00 0.00

Powered by AerisWeather